• în România
  • Lista ţărilor
  • Pe 7 zile
  • Temperatura apei
  • Hartă satelitară
  • Meteo pe hartă
  • Widget-uri
  • user-avatar
    Intrare

    Meteo pe oră la Parakou

    Astăzi, 17 Decembrie, Duminică

    Timp Temperatura Precipitaţii Vânt Presiune Umiditate
    00:00 +29°C° 0 mm 1 m/s 727 mmHg 16%
    01:00 +29°C° 0 mm 1 m/s 727 mmHg 16%
    02:00 +28°C° 0 mm 1 m/s 726 mmHg 17%
    03:00 +28°C° 0 mm 1 m/s 726 mmHg 17%
    04:00 +27°C° 0 mm 1 m/s 726 mmHg 22%
    05:00 +26°C° 0 mm 1 m/s 727 mmHg 28%
    06:00 +26°C° 0 mm 1 m/s 727 mmHg 33%
    07:00 +28°C° 0 mm 1 m/s 727 mmHg 34%
    08:00 +30°C° 0 mm 1 m/s 728 mmHg 36%
    09:00 +32°C° 0 mm 1 m/s 728 mmHg 37%
    10:00 +35°C° 0 mm 1 m/s 728 mmHg 30%
    11:00 +36°C° 0 mm 0 m/s 728 mmHg 23%
    12:00 +39°C° 0 mm 0 m/s 727 mmHg 16%
    13:00 +39°C° 0 mm 0 m/s 727 mmHg 15%
    14:00 +39°C° 0 mm 0 m/s 726 mmHg 14%
    15:00 +38°C° 0 mm 0 m/s 725 mmHg 13%
    16:00 +37°C° 0 mm 0 m/s 725 mmHg 14%
    17:00 +35°C° 0 mm 0 m/s 725 mmHg 14%
    18:00 +33°C° 0 mm 0 m/s 725 mmHg 15%
    19:00 +32°C° 0 mm 0 m/s 726 mmHg 16%
    20:00 +31°C° 0 mm 0 m/s 726 mmHg 16%
    21:00 +32°C° 0 mm 1 m/s 727 mmHg 16%
    22:00 +32°C° 0 mm 1 m/s 727 mmHg 17%
    23:00 +31°C° 0 mm 1 m/s 727 mmHg 18%

    Mâine, 18 Decembrie, Luni

    Timp Temperatura Precipitaţii Vânt Presiune Umiditate
    00:00 +30°C° 0 mm 1 m/s 727 mmHg 18%
    01:00 +29°C° 0 mm 1 m/s 726 mmHg 27%
    02:00 +29°C° 0 mm 1 m/s 726 mmHg 36%
    03:00 +28°C° 0 mm 2 m/s 726 mmHg 45%
    04:00 +27°C° 0 mm 2 m/s 726 mmHg 54%
    05:00 +27°C° 0 mm 1 m/s 726 mmHg 64%
    06:00 +26°C° 0 mm 1 m/s 727 mmHg 73%
    07:00 +28°C° 0 mm 1 m/s 727 mmHg 68%
    08:00 +30°C° 0 mm 2 m/s 728 mmHg 62%
    09:00 +31°C° 0 mm 2 m/s 728 mmHg 56%
    10:00 +35°C° 0 mm 2 m/s 727 mmHg 47%
    11:00 +37°C° 0 mm 2 m/s 727 mmHg 38%
    12:00 +39°C° 0 mm 2 m/s 726 mmHg 30%
    13:00 +39°C° 0 mm 1 m/s 726 mmHg 27%
    14:00 +40°C° 0 mm 1 m/s 725 mmHg 25%
    15:00 +40°C° 0 mm 1 m/s 724 mmHg 22%
    16:00 +39°C° 0 mm 1 m/s 724 mmHg 24%
    17:00 +36°C° 0 mm 1 m/s 724 mmHg 25%
    18:00 +35°C° 0 mm 1 m/s 724 mmHg 27%
    19:00 +35°C° 0 mm 1 m/s 725 mmHg 28%
    20:00 +34°C° 0 mm 1 m/s 726 mmHg 29%
    21:00 +35°C° 0 mm 2 m/s 726 mmHg 31%
    22:00 +34°C° 0,2 mm 2 m/s 726 mmHg 39%
    23:00 +31°C° 0,2 mm 3 m/s 726 mmHg 48%

    Poimâine, 19 Decembrie, Marţi

    Timp Temperatura Precipitaţii Vânt Presiune Umiditate
    00:00 +30°C° 0,2 mm 3 m/s 726 mmHg 57%
    01:00 +30°C° 0,8 mm 3 m/s 726 mmHg 62%
    02:00 +29°C° 0,8 mm 3 m/s 725 mmHg 66%
    03:00 +28°C° 0,8 mm 2 m/s 725 mmHg 71%
    04:00 +28°C° 0,1 mm 2 m/s 725 mmHg 73%
    05:00 +27°C° 0,1 mm 2 m/s 726 mmHg 75%
    06:00 +27°C° 0,1 mm 2 m/s 726 mmHg 77%
    07:00 +28°C° 0 mm 2 m/s 727 mmHg 71%
    08:00 +30°C° 0 mm 2 m/s 727 mmHg 65%
    09:00 +31°C° 0 mm 2 m/s 728 mmHg 59%
    10:00 +34°C° 0 mm 2 m/s 727 mmHg 50%
    11:00 +36°C° 0 mm 2 m/s 727 mmHg 41%
    12:00 +38°C° 0 mm 2 m/s 726 mmHg 32%
    13:00 +37°C° 0 mm 1 m/s 725 mmHg 30%
    14:00 +39°C° 0 mm 1 m/s 725 mmHg 27%
    15:00 +40°C° 0 mm 1 m/s 724 mmHg 24%
    16:00 +39°C° 0 mm 1 m/s 724 mmHg 26%
    17:00 +36°C° 0 mm 1 m/s 724 mmHg 27%
    18:00 +35°C° 0 mm 1 m/s 724 mmHg 29%
    19:00 +35°C° 0 mm 1 m/s 725 mmHg 31%
    20:00 +34°C° 0 mm 1 m/s 725 mmHg 33%
    21:00 +35°C° 0 mm 2 m/s 726 mmHg 34%
    22:00 +34°C° 0,1 mm 2 m/s 726 mmHg 40%
    23:00 +33°C° 0,1 mm 3 m/s 726 mmHg 46%

    20 Decembrie, Miercuri

    Timp Temperatura Precipitaţii Vânt Presiune Umiditate
    00:00 +31°C° 0,1 mm 3 m/s 726 mmHg 52%
    01:00 +31°C° 1,1 mm 3 m/s 725 mmHg 57%
    02:00 +30°C° 1,1 mm 3 m/s 725 mmHg 62%
    03:00 +29°C° 1,1 mm 2 m/s 725 mmHg 67%
    04:00 +28°C° 0,1 mm 2 m/s 725 mmHg 68%
    05:00 +28°C° 0,1 mm 2 m/s 726 mmHg 70%
    06:00 +28°C° 0,1 mm 2 m/s 726 mmHg 71%
    07:00 +29°C° 0 mm 2 m/s 726 mmHg 67%
    08:00 +30°C° 0 mm 2 m/s 727 mmHg 62%
    09:00 +31°C° 0 mm 2 m/s 727 mmHg 58%
    10:00 +34°C° 0 mm 2 m/s 727 mmHg 50%
    11:00 +35°C° 0 mm 1 m/s 726 mmHg 41%
    12:00 +37°C° 0 mm 1 m/s 726 mmHg 33%
    13:00 +39°C° 0 mm 1 m/s 725 mmHg 30%
    14:00 +36°C° 0 mm 0 m/s 725 mmHg 28%
    15:00 +37°C° 0 mm 0 m/s 724 mmHg 25%
    16:00 +36°C° 0 mm 0 m/s 724 mmHg 26%
    17:00 +35°C° 0 mm 0 m/s 725 mmHg 28%
    18:00 +35°C° 0 mm 1 m/s 725 mmHg 29%
    19:00 +35°C° 0 mm 1 m/s 725 mmHg 30%
    20:00 +34°C° 0 mm 1 m/s 726 mmHg 32%
    21:00 +34°C° 0 mm 1 m/s 727 mmHg 33%
    22:00 +33°C° 0 mm 1 m/s 726 mmHg 35%
    23:00 +34°C° 0 mm 2 m/s 726 mmHg 37%

    21 Decembrie, Joi

    Timp Temperatura Precipitaţii Vânt Presiune Umiditate
    00:00 +32°C° 0 mm 2 m/s 726 mmHg 39%
    01:00 +31°C° 0,6 mm 2 m/s 726 mmHg 43%
    02:00 +31°C° 0,6 mm 2 m/s 726 mmHg 47%
    03:00 +30°C° 0,6 mm 2 m/s 726 mmHg 51%
    04:00 +29°C° 0 mm 2 m/s 726 mmHg 56%
    05:00 +29°C° 0 mm 1 m/s 726 mmHg 61%
    06:00 +28°C° 0 mm 1 m/s 727 mmHg 67%
    07:00 +29°C° 0 mm 1 m/s 727 mmHg 62%
    08:00 +31°C° 0 mm 1 m/s 728 mmHg 57%
    09:00 +32°C° 0 mm 1 m/s 728 mmHg 52%
    10:00 +35°C° 0 mm 1 m/s 728 mmHg 43%
    11:00 +37°C° 0 mm 1 m/s 727 mmHg 33%
    12:00 +37°C° 0 mm 0 m/s 727 mmHg 24%
    13:00 +37°C° 0 mm 0 m/s 726 mmHg 22%
    14:00 +40°C° 0 mm 1 m/s 726 mmHg 20%
    15:00 +40°C° 0 mm 1 m/s 725 mmHg 19%
    16:00 +39°C° 0 mm 1 m/s 725 mmHg 20%
    17:00 +37°C° 0 mm 1 m/s 725 mmHg 21%
    18:00 +36°C° 0 mm 1 m/s 726 mmHg 22%
    19:00 +35°C° 0 mm 1 m/s 726 mmHg 23%
    20:00 +34°C° 0 mm 1 m/s 727 mmHg 25%
    21:00 +33°C° 0 mm 1 m/s 727 mmHg 27%
    22:00 +32°C° 0 mm 1 m/s 727 mmHg 28%
    23:00 +32°C° 0 mm 1 m/s 727 mmHg 30%

    22 Decembrie, Vineri

    Timp Temperatura Precipitaţii Vânt Presiune Umiditate
    00:00 +31°C° 0 mm 1 m/s 727 mmHg 31%
    01:00 +30°C° 0 mm 1 m/s 727 mmHg 40%
    02:00 +30°C° 0 mm 2 m/s 727 mmHg 48%
    03:00 +29°C° 0 mm 2 m/s 726 mmHg 56%
    04:00 +28°C° 0,1 mm 2 m/s 727 mmHg 58%
    05:00 +28°C° 0,1 mm 1 m/s 727 mmHg 59%
    06:00 +28°C° 0,1 mm 1 m/s 727 mmHg 60%
    07:00 +29°C° 0 mm 1 m/s 728 mmHg 57%
    08:00 +30°C° 0 mm 1 m/s 728 mmHg 54%
    09:00 +31°C° 0 mm 2 m/s 728 mmHg 51%
    10:00 +33°C° 0 mm 1 m/s 728 mmHg 44%
    11:00 +36°C° 0 mm 1 m/s 727 mmHg 37%
    12:00 +39°C° 0 mm 1 m/s 727 mmHg 30%
    13:00 +39°C° 0 mm 1 m/s 726 mmHg 28%
    14:00 +39°C° 0 mm 1 m/s 725 mmHg 27%
    15:00 +39°C° 0 mm 1 m/s 725 mmHg 25%
    16:00 +37°C° 0 mm 1 m/s 725 mmHg 26%
    17:00 +36°C° 0 mm 1 m/s 725 mmHg 27%
    18:00 +35°C° 0 mm 1 m/s 725 mmHg 28%
    19:00 +35°C° 0 mm 1 m/s 726 mmHg 30%
    20:00 +34°C° 0 mm 1 m/s 726 mmHg 32%
    21:00 +33°C° 0 mm 1 m/s 727 mmHg 33%
    22:00 +33°C° 0 mm 1 m/s 726 mmHg 37%
    23:00 +32°C° 0 mm 2 m/s 726 mmHg 40%
    Arată mai mult